Starlink 11521

operational
NORAD ID: 62597 Int'l Des: 2025-008 Owner: SPXS Country: US Constellation: starlink
LEOCIRCULAR

About Starlink 11521

Description loading...

Live Position

Loading 3D Globe...

Upcoming Passes

Altitude History

Altitude vs Time

uPlot chart will show altitude changes over time

Two-Line Element Set

1 62597U 25008L 25308.60613522 .00127277 00000-0 97866-3 0 9992
2 62597 42.9987 159.9645 0002118 276.1455 83.9172 15.70878385 47611
Epoch: Nov 4, 2025 • Age: 7 hours

Current Status

Altitude 362.6 km
Velocity 7.69 km/s
Sub-Earth Point -28.14°S, 4.62°E
Launch Date Jan 13, 2025
Age 0.8 years
Type internet

Technical Details

Classification Payload
Mass 960.00 kg
Dry Mass 910.00 kg
Total Mass 960.00 kg
Length 0.30 m
Diameter 4.10 m
Span 29.00 m
Shape Box + pan
Manufacturer SPXS
Bus Type Starlink V2MD
Phase Status In Orbit
Owner/State SPXS/US

Large Constellations

Loading constellations...